EZY1DC EGKK-EGPD

Flight info

Callsign EZY1DC
Flight time N/A
Altitude 36000
Route LAM1Z LAM L10 BPK UN601 LESTA UY250 KEFTE DCT MADAD P18 EPCAN DCT
Aircraft A21N/M-SDE2E3FGHIJ1RWXYZ/LB1G1

Departure

Time N/A
Airport London Gatwick Airport (EGKK)

Arrival

Time 2026-05-07 17:57
Airport Aberdeen International Airport (EGPD)
Time Latitude Longitude Altitude Speed Heading
2026-05-07 17:03 52.26869 -0.60653 32428 ft 454 kts 328°
2026-05-07 17:04 52.29614 -0.63314 32723 ft 454 kts 328°
2026-05-07 17:04 52.32341 -0.65965 32896 ft 456 kts 328°
2026-05-07 17:04 52.35026 -0.68585 33102 ft 458 kts 328°
2026-05-07 17:04 52.37801 -0.71313 33372 ft 458 kts 328°
2026-05-07 17:05 52.40489 -0.73960 33670 ft 457 kts 328°
2026-05-07 17:05 52.43211 -0.76633 33953 ft 456 kts 328°
2026-05-07 17:05 52.45926 -0.79303 34178 ft 456 kts 328°
2026-05-07 17:05 52.48643 -0.81978 34372 ft 456 kts 328°
2026-05-07 17:06 52.51365 -0.84667 34561 ft 456 kts 328°
2026-05-07 17:06 52.54084 -0.87354 34732 ft 456 kts 328°
2026-05-07 17:06 52.56810 -0.90055 34874 ft 457 kts 328°
2026-05-07 17:06 52.59522 -0.92738 35043 ft 458 kts 328°
2026-05-07 17:07 52.62259 -0.95456 35192 ft 458 kts 328°
2026-05-07 17:07 52.64977 -0.98174 35373 ft 457 kts 328°
2026-05-07 17:07 52.67702 -1.00887 35551 ft 457 kts 328°
2026-05-07 17:07 52.70422 -1.03589 35722 ft 457 kts 327°
2026-05-07 17:08 52.73198 -1.06156 35855 ft 457 kts 334°
2026-05-07 17:08 52.76185 -1.07900 36008 ft 459 kts 346°
2026-05-07 17:08 52.82487 -1.09875 36069 ft 461 kts 350°
2026-05-07 17:09 52.88816 -1.11707 36033 ft 461 kts 349°
2026-05-07 17:09 52.95127 -1.13617 36030 ft 461 kts 349°
2026-05-07 17:10 53.01423 -1.15558 36030 ft 462 kts 349°
2026-05-07 17:10 53.07742 -1.17509 36032 ft 462 kts 349°
2026-05-07 17:11 53.14080 -1.19455 36035 ft 462 kts 349°
2026-05-07 17:11 53.20389 -1.21400 36037 ft 462 kts 349°
2026-05-07 17:12 53.26719 -1.23354 36031 ft 463 kts 349°
2026-05-07 17:12 53.33042 -1.25315 36033 ft 463 kts 349°
2026-05-07 17:13 53.39393 -1.27295 36030 ft 463 kts 349°
2026-05-07 17:13 53.45737 -1.28544 36025 ft 463 kts 356°
2026-05-07 17:14 53.52169 -1.29263 36028 ft 463 kts 356°
2026-05-07 17:14 53.58544 -1.30613 36017 ft 464 kts 342°
2026-05-07 17:15 53.61507 -1.32743 36024 ft 465 kts 330°
2026-05-07 17:15 53.64283 -1.35531 36030 ft 462 kts 327°
2026-05-07 17:15 53.69740 -1.41228 36026 ft 462 kts 327°
2026-05-07 17:16 53.75229 -1.46890 36027 ft 464 kts 328°
2026-05-07 17:16 53.80769 -1.52546 36026 ft 465 kts 328°
2026-05-07 17:17 53.86302 -1.58184 36030 ft 465 kts 328°
2026-05-07 17:17 53.91844 -1.63874 36020 ft 465 kts 328°
2026-05-07 17:18 53.97368 -1.69564 36023 ft 465 kts 328°
2026-05-07 17:18 54.03288 -1.73958 36011 ft 469 kts 349°
2026-05-07 17:19 54.06540 -1.74485 36024 ft 469 kts
2026-05-07 17:19 54.09788 -1.74430 36025 ft 467 kts
2026-05-07 17:19 54.16288 -1.74242 36020 ft 467 kts
2026-05-07 17:20 54.22783 -1.74189 36027 ft 467 kts
2026-05-07 17:20 54.29298 -1.74180 36024 ft 468 kts
2026-05-07 17:21 54.35818 -1.74145 36022 ft 468 kts
2026-05-07 17:21 54.42291 -1.74107 36017 ft 468 kts
2026-05-07 17:22 54.48811 -1.74085 36023 ft 468 kts
2026-05-07 17:22 54.55385 -1.74055 36016 ft 469 kts
2026-05-07 17:23 54.61913 -1.74021 36015 ft 469 kts
2026-05-07 17:23 54.68395 -1.74001 36025 ft 469 kts
2026-05-07 17:24 54.74962 -1.73976 36012 ft 470 kts
2026-05-07 17:24 54.81461 -1.73942 36005 ft 470 kts
2026-05-07 17:25 54.88009 -1.73894 36014 ft 470 kts
2026-05-07 17:25 54.94555 -1.73864 36028 ft 470 kts
2026-05-07 17:26 55.01104 -1.73842 36034 ft 471 kts
2026-05-07 17:26 55.07655 -1.73799 36028 ft 471 kts
2026-05-07 17:27 55.14185 -1.73764 35884 ft 464 kts 360°
2026-05-07 17:27 55.17395 -1.73753 35598 ft 460 kts
2026-05-07 17:27 55.20591 -1.73744 35343 ft 458 kts
2026-05-07 17:28 55.23769 -1.73727 35092 ft 457 kts
2026-05-07 17:28 55.26947 -1.73714 34845 ft 455 kts 360°
2026-05-07 17:28 55.30114 -1.73708 34615 ft 454 kts
2026-05-07 17:28 55.33260 -1.73685 34355 ft 452 kts
2026-05-07 17:29 55.36396 -1.73661 34006 ft 448 kts
2026-05-07 17:29 55.39491 -1.73648 33478 ft 444 kts
2026-05-07 17:29 55.42585 -1.73628 32735 ft 445 kts
2026-05-07 17:29 55.45649 -1.73615 31858 ft 450 kts 360°
2026-05-07 17:30 55.48850 -1.73592 31012 ft 454 kts 360°
2026-05-07 17:30 55.51995 -1.73572 30490 ft 450 kts 359°
2026-05-07 17:30 55.55097 -1.73559 30072 ft 442 kts 359°
2026-05-07 17:30 55.58153 -1.73558 29644 ft 434 kts 359°
2026-05-07 17:31 55.61142 -1.73551 29215 ft 427 kts 359°
2026-05-07 17:31 55.64087 -1.73525 28803 ft 420 kts 359°
2026-05-07 17:31 55.66949 -1.73497 28367 ft 413 kts 359°
2026-05-07 17:31 55.69841 -1.73483 27899 ft 408 kts 359°
2026-05-07 17:32 55.71712 -1.73478 27619 ft 404 kts 358°
2026-05-07 17:32 55.75420 -1.73474 27151 ft 401 kts 358°
2026-05-07 17:32 55.78206 -1.73463 26843 ft 399 kts 358°
2026-05-07 17:32 55.80074 -1.73455 26580 ft 398 kts 358°
2026-05-07 17:33 55.82837 -1.73439 26195 ft 395 kts 358°
2026-05-07 17:33 55.85576 -1.73422 25725 ft 393 kts 358°
2026-05-07 17:33 55.88261 -1.73413 25265 ft 390 kts 358°
2026-05-07 17:33 55.90963 -1.73453 24900 ft 386 kts 354°
2026-05-07 17:34 55.93599 -1.74150 24531 ft 380 kts 346°
2026-05-07 17:34 55.96171 -1.75116 24165 ft 376 kts 345°
2026-05-07 17:34 55.98724 -1.76099 23726 ft 375 kts 345°
2026-05-07 17:34 56.01289 -1.77082 22971 ft 379 kts 345°
2026-05-07 17:35 56.03889 -1.78073 22045 ft 388 kts 345°
2026-05-07 17:35 56.06544 -1.79062 21429 ft 388 kts 346°
2026-05-07 17:35 56.09176 -1.80038 20927 ft 384 kts 346°
2026-05-07 17:35 56.11780 -1.81004 20488 ft 380 kts 346°
2026-05-07 17:36 56.14347 -1.81951 20072 ft 375 kts 346°
2026-05-07 17:36 56.16882 -1.82895 19654 ft 370 kts 346°
2026-05-07 17:36 56.19389 -1.83830 19260 ft 366 kts 346°
2026-05-07 17:36 56.21869 -1.84772 18867 ft 362 kts 346°
2026-05-07 17:37 56.24314 -1.85704 18508 ft 357 kts 346°
2026-05-07 17:37 56.26722 -1.86615 18156 ft 352 kts 346°
2026-05-07 17:37 56.29105 -1.87502 17799 ft 346 kts 346°
2026-05-07 17:37 56.31463 -1.88380 17441 ft 345 kts 345°
2026-05-07 17:38 56.33800 -1.89249 17116 ft 343 kts 345°
2026-05-07 17:38 56.36128 -1.90116 16775 ft 340 kts 345°
2026-05-07 17:38 56.38443 -1.90980 16419 ft 338 kts 345°
2026-05-07 17:38 56.40736 -1.91845 16081 ft 336 kts 345°
2026-05-07 17:39 56.43019 -1.92701 15760 ft 334 kts 345°
2026-05-07 17:39 56.45289 -1.93551 15433 ft 332 kts 344°
2026-05-07 17:39 56.47534 -1.94412 15149 ft 330 kts 344°
2026-05-07 17:39 56.49774 -1.95275 14868 ft 328 kts 344°
2026-05-07 17:40 56.52001 -1.96134 14582 ft 326 kts 344°
2026-05-07 17:40 56.54217 -1.96980 14316 ft 325 kts 344°
2026-05-07 17:40 56.56428 -1.97832 14062 ft 323 kts 342°
2026-05-07 17:40 56.58582 -1.98914 13686 ft 321 kts 338°
2026-05-07 17:41 56.60690 -2.00228 13186 ft 320 kts 336°
2026-05-07 17:41 56.62792 -2.01599 12668 ft 322 kts 336°
2026-05-07 17:41 56.64896 -2.02986 12152 ft 323 kts 335°
2026-05-07 17:41 56.67012 -2.04391 11636 ft 324 kts 336°
2026-05-07 17:42 56.69102 -2.05791 11141 ft 325 kts 336°
2026-05-07 17:42 56.71233 -2.07228 10644 ft 327 kts 336°
2026-05-07 17:42 56.73366 -2.08670 10152 ft 327 kts 335°
2026-05-07 17:42 56.75499 -2.10109 9645 ft 327 kts 336°
2026-05-07 17:43 56.77666 -2.11589 9089 ft 327 kts 335°
2026-05-07 17:43 56.79765 -2.13030 8635 ft 325 kts 335°
2026-05-07 17:43 56.81867 -2.14464 8278 ft 320 kts 335°
2026-05-07 17:43 56.83938 -2.15866 7983 ft 314 kts 336°
2026-05-07 17:44 56.85963 -2.17234 7685 ft 308 kts 335°
2026-05-07 17:44 56.87950 -2.18577 7400 ft 301 kts 335°
2026-05-07 17:44 56.89898 -2.19894 7125 ft 296 kts 335°
2026-05-07 17:44 56.91820 -2.21187 6835 ft 291 kts 335°
2026-05-07 17:45 56.93707 -2.22447 6559 ft 287 kts 335°
2026-05-07 17:45 56.95581 -2.23685 6275 ft 285 kts 335°
2026-05-07 17:45 56.97443 -2.24915 5987 ft 284 kts 335°
2026-05-07 17:45 56.99318 -2.26077 5702 ft 284 kts 339°
2026-05-07 17:46 57.01208 -2.27101 5419 ft 282 kts 339°
2026-05-07 17:46 57.03091 -2.28102 5126 ft 282 kts 339°
2026-05-07 17:46 57.04977 -2.29104 4847 ft 281 kts 339°
2026-05-07 17:46 57.06893 -2.29862 4567 ft 283 kts 347°
2026-05-07 17:47 57.08793 -2.30666 4287 ft 279 kts 340°
2026-05-07 17:47 57.10671 -2.31652 4022 ft 280 kts 339°
2026-05-07 17:47 57.12538 -2.32659 3750 ft 279 kts 340°
2026-05-07 17:47 57.14395 -2.33676 3486 ft 278 kts 339°
2026-05-07 17:48 57.16241 -2.34695 3211 ft 277 kts 340°
2026-05-07 17:48 57.18069 -2.35653 2935 ft 276 kts 342°
2026-05-07 17:48 57.19938 -2.36484 2649 ft 276 kts 343°
2026-05-07 17:48 57.21797 -2.37301 2485 ft 274 kts 343°
2026-05-07 17:49 57.23666 -2.38125 2469 ft 276 kts 343°
2026-05-07 17:49 57.25555 -2.38946 2474 ft 276 kts 343°
2026-05-07 17:49 57.27396 -2.39754 2493 ft 275 kts 343°
2026-05-07 17:49 57.29289 -2.40586 2496 ft 277 kts 343°
2026-05-07 17:50 57.31144 -2.41389 2498 ft 277 kts 343°
2026-05-07 17:50 57.33020 -2.42200 2501 ft 277 kts 343°
2026-05-07 17:50 57.34915 -2.42884 2492 ft 276 kts 355°
2026-05-07 17:50 57.36752 -2.42417 2482 ft 262 kts 20°
2026-05-07 17:51 57.38297 -2.40757 2469 ft 256 kts 45°
2026-05-07 17:51 57.39323 -2.38288 2503 ft 228 kts 68°
2026-05-07 17:51 57.39748 -2.35653 2496 ft 200 kts 89°
2026-05-07 17:51 57.39724 -2.33272 2450 ft 170 kts 116°
2026-05-07 17:52 57.39055 -2.31903 2451 ft 136 kts 169°
2026-05-07 17:52 57.38125 -2.31768 2507 ft 134 kts 181°
2026-05-07 17:52 57.37192 -2.31600 2507 ft 135 kts 176°
2026-05-07 17:52 57.36265 -2.31244 2501 ft 136 kts 172°
2026-05-07 17:53 57.35349 -2.30760 2497 ft 139 kts 168°
2026-05-07 17:53 57.34434 -2.30190 2495 ft 139 kts 166°
2026-05-07 17:53 57.33527 -2.29576 2494 ft 139 kts 165°
2026-05-07 17:53 57.32623 -2.28962 2497 ft 139 kts 164°
2026-05-07 17:54 57.31717 -2.28304 2480 ft 139 kts 164°
2026-05-07 17:54 57.30824 -2.27644 2353 ft 138 kts 164°
2026-05-07 17:54 57.29934 -2.26985 2175 ft 137 kts 164°
2026-05-07 17:54 57.29052 -2.26330 1985 ft 136 kts 163°
2026-05-07 17:55 57.28171 -2.25677 1799 ft 135 kts 163°
2026-05-07 17:55 57.27302 -2.25032 1611 ft 134 kts 163°
2026-05-07 17:55 57.26434 -2.24390 1425 ft 134 kts 163°
2026-05-07 17:55 57.25576 -2.23753 1242 ft 133 kts 163°
2026-05-07 17:56 57.24717 -2.23117 1045 ft 133 kts 161°
2026-05-07 17:56 57.23866 -2.22488 866 ft 130 kts 161°
2026-05-07 17:56 57.23020 -2.21863 679 ft 134 kts 160°
2026-05-07 17:56 57.22142 -2.21215 500 ft 137 kts 160°
2026-05-07 17:57 57.21267 -2.20569 324 ft 134 kts 159°
2026-05-07 17:57 57.20699 -2.20154 261 ft 129 kts 159°
2026-05-07 17:57 57.19854 -2.19522 256 ft 48 kts 158°
2026-05-07 17:57 57.19576 -2.19318 253 ft 29 kts 160°
2026-05-07 17:58 57.19451 -2.19251 252 ft 19 kts 214°
2026-05-07 17:58 57.19444 -2.19388 252 ft 6 kts 323°
2026-05-07 17:58 57.19482 -2.19442 252 ft 8 kts 318°
2026-05-07 17:58 57.19526 -2.19518 252 ft 10 kts 316°
2026-05-07 17:59 57.19580 -2.19610 252 ft 11 kts 318°
2026-05-07 17:59 57.19649 -2.19702 252 ft 13 kts 338°
2026-05-07 17:59 57.19741 -2.19767 253 ft 15 kts 340°
2026-05-07 17:59 57.19842 -2.19839 252 ft 16 kts 335°
2026-05-07 18:00 57.19906 -2.19929 252 ft 11 kts 314°
2026-05-07 18:00 57.19967 -2.20040 252 ft 13 kts 323°
2026-05-07 18:00 57.20050 -2.20111 252 ft 12 kts 339°
2026-05-07 18:00 57.20079 -2.20133 252 ft 4 kts 336°
2026-05-07 18:01 57.20106 -2.20156 252 ft 2 kts 335°
2026-05-07 18:01 57.20119 -2.20181 252 ft 4 kts 278°
2026-05-07 18:01 57.20117 -2.20199 252 ft 0 kts 254°
2026-05-07 18:02 57.20115 -2.20213 252 ft 3 kts 254°
2026-05-07 18:02 57.20108 -2.20251 252 ft 2 kts 249°
2026-05-07 18:03 57.20106 -2.20256 252 ft 0 kts 248°
2026-05-07 18:03 57.20105 -2.20261 252 ft 1 kts 248°
2026-05-07 18:03 57.20105 -2.20263 252 ft 0 kts 249°
2026-05-07 18:03 57.20103 -2.20270 252 ft 0 kts 248°